Weather History for Dyersburg, TN

Change the Weather History Date:

Monday, November 7, 2011

  Actual Average Record
Temperature  
Mean Temperature 67 °F -  
Max Temperature 75 °F 59 °F 80 °F (2005)
Min Temperature 59 °F 42 °F 28 °F (1998)
Cooling Degree Days 2    
Growing Degree Days 17 (Base 50)    
Moisture  
Dew Point 49 °F    
Average Humidity 55    
Maximum Humidity 63    
Minimum Humidity 47    
Precipitation  
Precipitation 0.00 in - - ()
Sea Level Pressure  
Sea Level Pressure 30.21 in    
Wind  
Wind Speed 8 mph (SSE)    
Max Wind Speed 13 mph    
Max Gust Speed 17 mph    
Visibility 10 miles    
Events      
Averages and records for this station are not official NWS values.
T = Trace of Precipitation, MM = Missing Value Source: NWS Daily Summary

Daily Weather History Graph

Daily Weather History Graph

Search for Another Location

Airport:

Trip Planner

Search our weather history database for the weather conditions in past years. The results will help you decide how hot, cold, wet, or windy it might be!

Date:

Astronomy

Nov. 07, 2011 Rise Set
Actual Time 6:25 AM CST 4:56 PM CST
Civil Twilight 5:58 AM CST 5:23 PM CST
Nautical Twilight 5:28 AM CST 5:53 PM CST
Astronomical Twilight 4:58 AM CST 6:23 PM CST
Moon 3:04 PM CST (11/7) 3:32 AM CST (11/7)
Length of Visible Light 11h 24m
Length of Day
10h 30m
Waxing Gibbous, 92% of the Moon is Illuminated
Nov 7
Waxing Gibbous
Nov 10
Full
Nov 18
Last Quarter
Nov 25
New
Dec 2
First Quarter

Hourly Weather History & Observations

Time (CST) Temp. Dew Point Humidity Pressure Visibility Wind Dir Wind Speed Gust Speed Precip Events Conditions
12:15 AM 60.8 °F 46.4 °F 59% 30.22 in 10.0 mi SSE 10.4 mph 17.3 mph N/A   Overcast
12:35 AM 60.8 °F 46.4 °F 59% 30.22 in 10.0 mi SSE 12.7 mph 16.1 mph N/A   Overcast
12:55 AM 60.8 °F 46.4 °F 59% 30.22 in 10.0 mi SSE 10.4 mph - N/A   Overcast
1:15 AM 60.8 °F 46.4 °F 59% 30.22 in 10.0 mi SSE 9.2 mph - N/A   Overcast
1:35 AM 60.8 °F 46.4 °F 59% 30.22 in 10.0 mi SSE 9.2 mph - N/A   Overcast
1:55 AM 60.8 °F 46.4 °F 59% 30.22 in 10.0 mi SSE 9.2 mph - N/A   Overcast
2:15 AM 60.8 °F 46.4 °F 59% 30.22 in 10.0 mi SSE 8.1 mph - N/A   Overcast
2:35 AM 60.8 °F 46.4 °F 59% 30.22 in 10.0 mi South 8.1 mph - N/A   Overcast
2:55 AM 60.8 °F 46.4 °F 59% 30.23 in 10.0 mi SSE 8.1 mph - N/A   Overcast
3:15 AM 60.8 °F 46.4 °F 59% 30.24 in 10.0 mi Calm Calm - N/A   Overcast
3:35 AM 60.8 °F 46.4 °F 59% 30.24 in 10.0 mi SSE 4.6 mph - N/A   Overcast
3:55 AM 60.8 °F 46.4 °F 59% 30.24 in 10.0 mi SSE 4.6 mph - N/A   Overcast
4:15 AM 59.0 °F 46.4 °F 63% 30.24 in 10.0 mi SSE 4.6 mph - N/A   Mostly Cloudy
4:35 AM 60.8 °F 46.4 °F 59% 30.24 in 10.0 mi SSE 8.1 mph - N/A   Overcast
5:15 AM 60.8 °F 46.4 °F 59% 30.25 in 10.0 mi SSE 6.9 mph - N/A   Overcast
5:35 AM 60.8 °F 46.4 °F 59% 30.25 in 10.0 mi SSE 8.1 mph - N/A   Overcast
5:55 AM 60.8 °F 46.4 °F 59% 30.25 in 10.0 mi SSE 9.2 mph - N/A   Overcast
6:15 AM 60.8 °F 46.4 °F 59% 30.25 in 10.0 mi SSE 6.9 mph - N/A   Overcast
6:35 AM 59.0 °F 46.4 °F 63% 30.25 in 10.0 mi SE 6.9 mph - N/A   Overcast
6:55 AM 59.0 °F 46.4 °F 63% 30.25 in 10.0 mi SSE 6.9 mph - N/A   Overcast
7:15 AM 60.8 °F 46.4 °F 59% 30.26 in 10.0 mi SSE 6.9 mph - N/A   Overcast
7:35 AM 59.0 °F 46.4 °F 63% 30.27 in 10.0 mi SSE 8.1 mph - N/A   Mostly Cloudy
7:55 AM 60.8 °F 46.4 °F 59% 30.27 in 10.0 mi SSE 6.9 mph - N/A   Partly Cloudy
8:15 AM 62.6 °F 48.2 °F 59% 30.27 in 10.0 mi South 5.8 mph - N/A   Clear
8:35 AM 62.6 °F 48.2 °F 59% 30.28 in 10.0 mi SSE 5.8 mph - N/A   Clear
8:55 AM 64.4 °F 48.2 °F 56% 30.28 in 10.0 mi SSE 9.2 mph - N/A   Scattered Clouds
9:15 AM 64.4 °F 50.0 °F 59% 30.28 in 10.0 mi SSE 8.1 mph - N/A   Partly Cloudy
9:55 AM 68.0 °F 51.8 °F 56% 30.28 in 10.0 mi South 10.4 mph - N/A   Clear
10:15 AM 69.8 °F 51.8 °F 53% 30.28 in 10.0 mi South 6.9 mph - N/A   Clear
10:35 AM 69.8 °F 51.8 °F 53% 30.28 in 10.0 mi SSE 5.8 mph - N/A   Mostly Cloudy
11:15 AM 71.6 °F 53.6 °F 53% 30.27 in 10.0 mi SW 4.6 mph - N/A   Overcast
11:35 AM 71.6 °F 53.6 °F 53% 30.26 in 10.0 mi South 9.2 mph - N/A   Mostly Cloudy
11:55 AM 73.4 °F 53.6 °F 50% 30.24 in 10.0 mi South 8.1 mph - N/A   Clear
12:15 PM 73.4 °F 53.6 °F 50% 30.22 in 10.0 mi South 5.8 mph - N/A   Mostly Cloudy
12:35 PM 73.4 °F 53.6 °F 50% 30.21 in 10.0 mi SSE 3.5 mph - N/A   Mostly Cloudy
12:55 PM 75.2 °F 53.6 °F 47% 30.20 in 10.0 mi South 3.5 mph - N/A   Scattered Clouds
1:15 PM 75.2 °F 53.6 °F 47% 30.19 in 10.0 mi SSW 5.8 mph - N/A   Mostly Cloudy
1:35 PM 75.2 °F 53.6 °F 47% 30.18 in 10.0 mi SSE 6.9 mph - N/A   Scattered Clouds
1:55 PM 75.2 °F 53.6 °F 47% 30.17 in 10.0 mi South 5.8 mph - N/A   Clear
2:15 PM 75.2 °F 53.6 °F 47% 30.16 in 10.0 mi South 4.6 mph - N/A   Clear
2:35 PM 75.2 °F 53.6 °F 47% 30.16 in 10.0 mi South 5.8 mph - N/A   Clear
2:55 PM 75.2 °F 53.6 °F 47% 30.16 in 10.0 mi South 8.1 mph - N/A   Clear
3:15 PM 73.4 °F 51.8 °F 47% 30.15 in 10.0 mi SSE 9.2 mph - N/A   Clear
3:35 PM 73.4 °F 51.8 °F 47% 30.14 in 10.0 mi SSE 8.1 mph - N/A   Clear
3:55 PM 73.4 °F 51.8 °F 47% 30.15 in 10.0 mi SSE 4.6 mph - N/A   Clear
4:15 PM 73.4 °F 51.8 °F 47% 30.15 in 10.0 mi South 4.6 mph - N/A   Scattered Clouds
4:35 PM 71.6 °F 51.8 °F 50% 30.15 in 10.0 mi SE 4.6 mph - N/A   Mostly Cloudy
4:55 PM 69.8 °F 51.8 °F 53% 30.15 in 10.0 mi SE 5.8 mph - N/A   Overcast
5:15 PM 69.8 °F 50.0 °F 49% 30.16 in 10.0 mi SE 5.8 mph - N/A   Overcast
5:55 PM 68.0 °F 48.2 °F 49% 30.16 in 10.0 mi SE 4.6 mph - N/A   Scattered Clouds
6:15 PM 66.2 °F 48.2 °F 52% 30.16 in 10.0 mi SE 5.8 mph - N/A   Partly Cloudy
6:35 PM 66.2 °F 48.2 °F 52% 30.16 in 10.0 mi SE 6.9 mph - N/A   Partly Cloudy
6:55 PM 66.2 °F 48.2 °F 52% 30.15 in 10.0 mi SE 6.9 mph - N/A   Clear
7:15 PM 64.4 °F 48.2 °F 56% 30.15 in 10.0 mi SE 5.8 mph - N/A   Clear
7:35 PM 64.4 °F 48.2 °F 56% 30.14 in 10.0 mi SE 6.9 mph - N/A   Clear
8:15 PM 62.6 °F 48.2 °F 59% 30.15 in 10.0 mi SE 5.8 mph - N/A   Clear
8:35 PM 62.6 °F 48.2 °F 59% 30.15 in 10.0 mi SE 4.6 mph - N/A   Clear
8:55 PM 62.6 °F 48.2 °F 59% 30.15 in 10.0 mi SE 5.8 mph - N/A   Clear
9:15 PM 62.6 °F 48.2 °F 59% 30.16 in 10.0 mi SSE 4.6 mph - N/A   Clear
9:35 PM 64.4 °F 48.2 °F 56% 30.15 in 10.0 mi SSE 6.9 mph - N/A   Clear
9:55 PM 62.6 °F 48.2 °F 59% 30.15 in 10.0 mi SSE 5.8 mph - N/A   Clear
10:15 PM 60.8 °F 46.4 °F 59% 30.15 in 10.0 mi SE 4.6 mph - N/A   Clear
10:35 PM 60.8 °F 48.2 °F 63% 30.15 in 10.0 mi SSE 4.6 mph - N/A   Clear
10:55 PM 62.6 °F 48.2 °F 59% 30.15 in 10.0 mi SE 6.9 mph - N/A   Clear
11:15 PM 60.8 °F 48.2 °F 63% 30.14 in 10.0 mi SE 6.9 mph - N/A   Clear
11:35 PM 60.8 °F 46.4 °F 59% 30.14 in 10.0 mi SE 6.9 mph - N/A   Clear
11:55 PM 60.8 °F 46.4 °F 59% 30.14 in 10.0 mi SE 5.8 mph - N/A   Clear